Miscellaneous Local Product
Issued by NWS Hastings, NE

Home | Current Version | Previous Version | Graphics & Text | Print | Product List | Glossary On
Versions: 1 2 3 4 5 6 7 8 9 10 11 12 13 14 15 16 17 18 19 20 21 22 23 24 25 26 27 28 29 30 31 32 33 34 35 36 37 38 39 40 41 42 43 44 45 46 47 48 49 50
000
AXUS43 KGID 230502
MISGRI

GID CWA HOURLY WEATHER ROUNDUP
NATIONAL WEATHER SERVICE HASTINGS NE
1200 AM CDT WED APR 23 2014

NOTE: "FAIR" INDICATES FEW OR NO CLOUDS BELOW 12,000 FEET WITH NO
SIGNIFICANT WEATHER AND/OR OBSTRUCTIONS TO VISIBILITY.

...SOUTH CENTRAL NEBRASKA...

CITY           SKY/WX    TMP DP  RH WIND       PRES   REMARKS
GRAND ISLAND   CLEAR     58  32  37 SE21G30   29.87F
HASTINGS       CLEAR     58  31  35 SE13G22   29.86F
KEARNEY        CLEAR     55  34  44 SE16G22   29.83F
ORD            CLEAR     58  31  35 SE14G24   29.81F
YORK           CLOUDY    57  32  38 SE18      29.90S
AURORA         CLEAR     58  33  39 SE17G26   29.88F
LEXINGTON      PTCLDY    61  33  34 SE18      29.79S
HOLDREGE       PTCLDY    60  32  34 SE20G25   29.82F
HEBRON         PTCLDY    59  32  36 SE12      29.92S

...NEBRASKA PANHANDLE...

CITY           SKY/WX    TMP DP  RH WIND       PRES   REMARKS
CHADRON        CLOUDY    65  46  50 SE25G35   29.54F
ALLIANCE       MOCLDY    60  40  47 SE18      29.63F
SCOTTSBLUFF    MOCLDY    61  45  55 E14       29.59F
SIDNEY         PTCLDY    63  38  39 S15       29.65F

...WESTERN AND NORTH CENTRAL NEBRASKA...

CITY           SKY/WX    TMP DP  RH WIND       PRES   REMARKS
VALENTINE      CLOUDY    62  33  33 SE5       29.75R
AINSWORTH      CLOUDY    60  33  35 SE18G24   29.74F
ONEILL         PTCLDY    56  28  34 SE18      29.83F
BROKEN BOW     CLEAR     54  34  46 SE14G23   29.79F
IMPERIAL       MOCLDY    63  46  54 S23G38    29.70F
NORTH PLATTE   PTCLDY    62  34  35 SE17G26   29.72F
MCCOOK         MOCLDY    65  42  43 S24G41    29.73F

...EASTERN NEBRASKA...

CITY           SKY/WX    TMP DP  RH WIND       PRES   REMARKS
NORFOLK        CLEAR     56  33  42 SE16      29.89F
SO SIOUX CITY  CLOUDY    59  34  39 SE14      29.95F
TEKAMAH        PTCLDY    57  33  40 SE13      29.96F
COLUMBUS       CLEAR     55  32  41 SE10      29.92S
ALBION         CLEAR     57  30  35 SE17G23   29.88F
OMAHA EPPLEY   MOCLDY    59  33  37 SE14      29.97F
OFFUTT AFB     MOCLDY    56  37  48 E12       29.97F
MILLARD        CLOUDY    60  34  36 SE8       29.96F
LINCOLN        CLEAR     61  32  33 SE14      29.94F
NEBRASKA CITY  PTCLDY    59  33  37 SE9       29.98F
BEATRICE       CLEAR     58  32  38 SE9       29.94F
FALLS CITY     MOCLDY    55  36  48 SE7       29.98F

...NORTHERN KANSAS...

CITY           SKY/WX    TMP DP  RH WIND       PRES   REMARKS
GOODLAND       PTCLDY    59  48  67 SE26G36   29.74F
HILL CITY      CLOUDY    60  40  47 SE16G26   29.82F
PHILLIPSBURG   PTCLDY    64  34  32 SE12      29.82F
SMITH CENTER   CLEAR     57  34  41 SE21      29.85F
BELOIT         CLEAR     63  30  29 SE14      29.90R
HAYS           CLOUDY    59  37  44 SE21      29.86F
RUSSELL        CLOUDY    62  31  31 S20       29.87S
CONCORDIA      MOCLDY    60  32  34 SE16      29.92R
SALINA         CLOUDY    62  32  32 SE15      29.91F
TOPEKA         CLEAR     54  37  52 E7        29.99S



USA.gov is the U.S. government's official web portal to all federal, state and local government web resources and services.